Lincoln Laboratory Near-Earth Asteroid Research project
軌道要素
Epoch 2002 Nov. 22.0 TT = JDT 2452600.5 MPC
M 15.25944 (2000.0) P Q
n 0.05178694 Peri. 239.30230 +0.87184141 -0.42682641
a 7.1283531 Node 144.30150 +0.45136968 +0.89059357
e 0.6873840 Incl. 24.31141 -0.19015247 +0.15704238
P 19.03 H 15.4 G 0.15 U 1